GW0234 Weather Reports


Display with metric or nautical units.
time (UTC)temp
F
wind
direction
speed
MPH
gust
MPH
rain 1hr
in
rain 24hr
in
rain mn
in
humidity
%
barometer
mb
20260510140058 50 86 0.0 2.0 0.00 0.62 0.19 85 1013.2
20260510134558 50 191 0.0 2.0 0.00 0.62 0.19 87 1013.2
20260510133056 50 0 0.0 3.0 0.00 0.62 0.19 88 1013.1
20260510131557 50 109 0.0 3.0 0.00 0.62 0.19 88 1012.7
20260510130055 51 124 1.0 3.0 0.00 0.62 0.19 88 1012.7
20260510124603 51 177 1.0 5.0 0.00 0.63 0.19 89 1012.0
20260510123055 52 147 1.0 4.0 0.00 0.63 0.19 90 1012.2
20260510121554 52 103 1.0 4.0 0.00 0.63 0.19 90 1011.7
20260510120101 52 0 1.0 3.0 0.00 0.63 0.19 91 1011.4
20260510114600 52 0 0.0 3.0 0.00 0.64 0.19 91 1011.1
20260510113057 52 0 1.0 4.0 0.00 0.64 0.19 91 1011.0
20260510111602 51 115 0.0 3.0 0.00 0.64 0.19 91 1010.6
20260510110108 51 0 0.0 3.0 0.00 0.64 0.19 91 1010.3
20260510104605 50 0 0.0 3.0 0.00 0.70 0.19 90 1010.3
20260510103108 50 0 0.0 1.0 0.00 0.70 0.19 90 1010.0
20260510101557 50 355 0.0 1.0 0.00 0.70 0.19 90 1009.8
20260510100122 49 0 0.0 0.0 0.00 0.70 0.19 90 1009.2
20260510094607 50 0 0.0 0.0 0.00 0.83 0.19 90 1009.1
20260510093102 50 0 0.0 0.0 0.00 0.83 0.19 90 1009.1
20260510091558 50 0 0.0 1.0 0.00 0.83 0.19 90 1008.9
20260510084611 50 0 0.0 1.0 0.00 0.97 0.19 90 1008.4
20260510083059 50 0 0.0 1.0 0.00 0.97 0.19 90 1008.4
20260510081559 50 0 0.0 1.0 0.00 0.97 0.19 89 1008.0
20260510080058 51 0 0.0 2.0 0.00 0.97 0.19 89 1008.0
20260510074556 52 0 1.0 3.0 0.00 1.02 0.19 90 1007.8
20260510073106 52 278 0.0 5.0 0.00 1.02 0.19 90 1008.2
20260510071556 52 135 3.0 9.0 0.00 1.02 0.19 90 1008.4
20260510070100 52 0 0.0 3.0 0.00 1.02 0.19 89 1007.2
20260510064558 52 0 0.0 3.0 0.00 1.02 0.19 89 1007.3
20260510063058 52 0 0.0 3.0 0.00 1.02 0.19 89 1007.1
20260510061557 52 0 1.0 4.0 0.01 1.02 0.19 89 1007.5
20260510060058 53 341 0.0 4.0 0.05 1.02 0.19 88 1007.5
20260510054558 53 336 0.0 3.0 0.05 1.03 0.19 89 1007.6
20260510053107 53 0 0.0 3.0 0.12 1.03 0.19 89 1008.2
20260510051556 53 28 2.0 9.0 0.16 1.02 0.18 89 1008.5
20260510050059 53 5 2.0 5.0 0.14 0.98 0.14 89 1008.3
20260510044600 53 0 1.0 6.0 0.17 1.01 0.14 89 1007.6
20260510043110 53 351 0.0 3.0 0.10 0.94 0.07 88 1008.5
20260510041558 52 0 0.0 0.0 0.05 0.89 0.02 88 1008.3
20260510040103 52 0 0.0 1.0 0.03 0.87 0.00 88 1007.5
20260510034559 52 0 0.0 3.0 0.00 0.88 0.84 87 1007.7
20260510033133 52 0 2.0 4.0 0.00 0.88 0.84 87 1007.4
20260510031622 52 360 1.0 3.0 0.02 0.88 0.84 87 1007.5
20260510030100 53 355 1.0 3.0 0.03 0.88 0.84 87 1007.3
20260510024557 53 355 1.0 3.0 0.08 0.92 0.84 86 1007.6
20260510023058 53 0 0.0 3.0 0.13 0.92 0.84 86 1007.4
20260510021556 53 342 0.0 4.0 0.16 0.90 0.82 86 1008.0
20260510020058 53 348 2.0 5.0 0.35 0.89 0.81 85 1007.9
20260510014555 53 0 0.0 2.0 0.32 0.86 0.76 84 1008.2
20260510013056 53 105 1.0 7.0 0.27 0.81 0.71 83 1008.1
20260510011601 54 167 3.0 10.0 0.22 0.76 0.66 81 1007.9
20260510010105 57 186 4.0 14.0 0.02 0.56 0.46 74 1007.4
20260510004556 61 38 0.0 2.0 0.00 0.54 0.44 68 1005.7
20260510003056 62 0 0.0 8.0 0.00 0.54 0.44 64 1005.3
20260510001556 62 5 0.0 5.0 0.00 0.54 0.44 64 1004.9
20260510000107 62 347 4.0 10.0 0.00 0.54 0.44 62 1004.7
20260509234602 63 26 4.0 12.0 0.00 0.54 0.44 61 1004.6
20260509233057 63 336 1.0 13.0 0.00 0.54 0.44 64 1004.5
20260509231556 64 17 5.0 13.0 0.00 0.54 0.44 59 1004.5
20260509230055 64 323 5.0 13.0 0.00 0.54 0.44 59 1004.6
20260509224556 65 40 3.0 13.0 0.00 0.55 0.44 59 1004.6
20260509223102 65 334 5.0 14.0 0.00 0.55 0.44 58 1004.2
20260509221557 65 338 5.0 16.0 0.00 0.55 0.44 57 1004.4
20260509220056 65 24 7.0 17.0 0.00 0.55 0.44 57 1004.3
20260509214555 65 327 8.0 16.0 0.00 0.55 0.44 58 1004.3
20260509213056 65 31 3.0 12.0 0.00 0.55 0.44 59 1004.5
20260509211554 65 346 7.0 18.0 0.00 0.55 0.44 59 1004.5
20260509210106 65 332 9.0 18.0 0.00 0.55 0.44 58 1004.8
20260509204601 65 18 7.0 15.0 0.00 0.55 0.44 58 1005.0
20260509203059 64 117 5.0 15.0 0.00 0.55 0.44 61 1005.0
20260509201608 64 324 3.0 14.0 0.00 0.55 0.44 60 1005.3
20260509200107 64 61 4.0 16.0 0.00 0.55 0.44 63 1005.5
20260509194557 64 46 7.0 17.0 0.00 0.55 0.44 62 1005.5
20260509193057 63 335 3.0 13.0 0.00 0.55 0.44 67 1005.7
20260509191557 63 5 4.0 17.0 0.00 0.55 0.44 70 1006.1
20260509190054 62 24 5.0 12.0 0.00 0.55 0.44 71 1006.0
20260509184606 62 355 4.0 12.0 0.00 0.58 0.44 72 1006.0
20260509183059 60 28 4.0 13.0 0.00 0.58 0.44 74 1006.2
20260509181621 60 342 3.0 12.0 0.00 0.58 0.44 77 1006.3
20260509180057 59 344 3.0 11.0 0.00 0.58 0.44 79 1006.5
20260509174558 58 186 3.0 11.0 0.00 0.58 0.44 82 1006.5
20260509173104 57 348 2.0 10.0 0.00 0.58 0.44 84 1006.6
20260509171558 55 346 1.0 8.0 0.00 0.58 0.44 85 1006.7
20260509170058 55 360 2.0 6.0 0.00 0.58 0.44 86 1006.8
20260509164555 55 34 2.0 7.0 0.00 0.58 0.44 86 1006.7
20260509163055 54 360 2.0 8.0 0.00 0.58 0.44 87 1006.8
20260509161600 54 19 2.0 6.0 0.00 0.58 0.44 87 1006.8
20260509160059 53 346 3.0 9.0 0.00 0.58 0.44 89 1006.4
20260509154556 53 344 3.0 9.0 0.00 0.58 0.44 89 1006.3
20260509153057 52 360 2.0 8.0 0.00 0.58 0.44 89 1006.4
20260509151603 52 9 2.0 8.0 0.00 0.58 0.44 90 1006.3
20260509150058 52 15 2.0 8.0 0.00 0.58 0.44 90 1006.3
20260509144610 52 342 2.0 11.0 0.00 0.58 0.44 90 1006.2
20260509143122 51 12 4.0 10.0 0.00 0.58 0.44 90 1006.3